When you browse on this site, cookies collect data to enhance your experience and personalize the content and advertising you see.
Visit our Privacy Policy to learn more. By continuing to use the site, you agree to this use of cookies and data.
  • In Hungary
  • List of Countries
  • For 7 days
  • Water Temperature
  • Weather Map
  • News
  • Weather Widgets
  • user-avatar
    Login

    Hourly Weather Pekarevo

    Today, 21 August, Wednesday

    Time Temperature Precipitation Wind Pressure Humidity
    00:00 +18°C° 0 mm 1 mps 743 mmHg 96%
    01:00 +18°C° 0 mm 1 mps 743 mmHg 96%
    02:00 +18°C° 0 mm 1 mps 744 mmHg 97%
    03:00 +18°C° 0 mm 1 mps 744 mmHg 97%
    04:00 +16°C° 0 mm 1 mps 744 mmHg 98%
    05:00 +16°C° 0 mm 1 mps 744 mmHg 98%
    06:00 +18°C° 0 mm 1 mps 744 mmHg 96%
    07:00 +19°C° 0 mm 1 mps 744 mmHg 94%
    08:00 +20°C° 0 mm 1 mps 744 mmHg 92%
    09:00 +22°C° 0 mm 1 mps 744 mmHg 87%
    10:00 +23°C° 0 mm 1 mps 744 mmHg 81%
    11:00 +24°C° 0 mm 1 mps 744 mmHg 76%
    12:00 +25°C° 0 mm 1 mps 744 mmHg 73%
    13:00 +26°C° 0 mm 1 mps 743 mmHg 70%
    14:00 +26°C° 0 mm 1 mps 743 mmHg 67%
    15:00 +26°C° 0.6 mm 2 mps 743 mmHg 73%
    16:00 +26°C° 0.6 mm 2 mps 742 mmHg 78%
    17:00 +25°C° 0.6 mm 2 mps 742 mmHg 83%
    18:00 +24°C° 0.5 mm 2 mps 741 mmHg 87%
    19:00 +21°C° 0.5 mm 2 mps 741 mmHg 90%
    20:00 +20°C° 0.5 mm 3 mps 741 mmHg 93%
    21:00 +20°C° 0.2 mm 3 mps 741 mmHg 93%
    22:00 +19°C° 0.2 mm 3 mps 740 mmHg 94%
    23:00 +19°C° 0.2 mm 3 mps 740 mmHg 95%

    Tomorrow, 22 August, Thursday

    Time Temperature Precipitation Wind Pressure Humidity
    00:00 +19°C° 0 mm 3 mps 740 mmHg 94%
    01:00 +19°C° 0 mm 3 mps 740 mmHg 94%
    02:00 +18°C° 0 mm 3 mps 740 mmHg 93%
    03:00 +18°C° 0 mm 3 mps 740 mmHg 94%
    04:00 +18°C° 0 mm 3 mps 740 mmHg 94%
    05:00 +17°C° 0 mm 3 mps 740 mmHg 95%
    06:00 +18°C° 0.1 mm 3 mps 740 mmHg 94%
    07:00 +18°C° 0.1 mm 3 mps 741 mmHg 94%
    08:00 +18°C° 0.1 mm 4 mps 741 mmHg 94%
    09:00 +18°C° 0.1 mm 4 mps 741 mmHg 92%
    10:00 +17°C° 0.1 mm 4 mps 742 mmHg 91%
    11:00 +17°C° 0.1 mm 4 mps 742 mmHg 89%
    12:00 +17°C° 0 mm 4 mps 742 mmHg 85%
    13:00 +18°C° 0 mm 4 mps 743 mmHg 80%
    14:00 +18°C° 0 mm 4 mps 743 mmHg 76%
    15:00 +19°C° 0 mm 3 mps 743 mmHg 75%
    16:00 +19°C° 0 mm 3 mps 743 mmHg 74%
    17:00 +19°C° 0 mm 2 mps 744 mmHg 74%
    18:00 +18°C° 0 mm 2 mps 744 mmHg 78%
    19:00 +16°C° 0 mm 2 mps 744 mmHg 83%
    20:00 +15°C° 0 mm 2 mps 745 mmHg 87%
    21:00 +14°C° 0 mm 2 mps 745 mmHg 89%
    22:00 +13°C° 0 mm 1 mps 745 mmHg 90%
    23:00 +13°C° 0 mm 1 mps 745 mmHg 91%

    Day after tomorrow, 23 August, Friday

    Time Temperature Precipitation Wind Pressure Humidity
    00:00 +12°C° 0 mm 1 mps 745 mmHg 90%
    01:00 +12°C° 0 mm 1 mps 745 mmHg 90%
    02:00 +12°C° 0 mm 1 mps 746 mmHg 90%
    03:00 +11°C° 0 mm 1 mps 746 mmHg 90%
    04:00 +11°C° 0 mm 1 mps 746 mmHg 90%
    05:00 +11°C° 0 mm 1 mps 746 mmHg 90%
    06:00 +13°C° 0 mm 1 mps 746 mmHg 84%
    07:00 +15°C° 0 mm 1 mps 746 mmHg 78%
    08:00 +18°C° 0 mm 1 mps 746 mmHg 72%
    09:00 +19°C° 0 mm 1 mps 746 mmHg 66%
    10:00 +21°C° 0 mm 1 mps 746 mmHg 61%
    11:00 +22°C° 0 mm 1 mps 746 mmHg 56%
    12:00 +22°C° 0 mm 1 mps 746 mmHg 54%
    13:00 +23°C° 0 mm 1 mps 746 mmHg 53%
    14:00 +23°C° 0 mm 1 mps 746 mmHg 51%
    15:00 +23°C° 0 mm 1 mps 746 mmHg 56%
    16:00 +22°C° 0 mm 1 mps 746 mmHg 61%
    17:00 +22°C° 0 mm 1 mps 745 mmHg 66%
    18:00 +20°C° 0 mm 1 mps 745 mmHg 70%
    19:00 +18°C° 0 mm 1 mps 745 mmHg 75%
    20:00 +14°C° 0 mm 0 mps 745 mmHg 80%
    21:00 +14°C° 0 mm 1 mps 745 mmHg 82%
    22:00 +14°C° 0 mm 1 mps 746 mmHg 84%
    23:00 +13°C° 0 mm 1 mps 746 mmHg 86%

    24 August, Saturday

    Time Temperature Precipitation Wind Pressure Humidity
    00:00 +13°C° 0 mm 1 mps 746 mmHg 87%
    01:00 +12°C° 0 mm 1 mps 746 mmHg 88%
    02:00 +12°C° 0 mm 1 mps 746 mmHg 89%
    03:00 +12°C° 0 mm 1 mps 746 mmHg 90%
    04:00 +12°C° 0 mm 1 mps 746 mmHg 91%
    05:00 +12°C° 0 mm 1 mps 746 mmHg 92%
    06:00 +14°C° 0 mm 1 mps 746 mmHg 87%
    07:00 +16°C° 0 mm 1 mps 746 mmHg 81%
    08:00 +18°C° 0 mm 1 mps 746 mmHg 76%
    09:00 +19°C° 0 mm 2 mps 746 mmHg 70%
    10:00 +20°C° 0 mm 2 mps 746 mmHg 64%
    11:00 +21°C° 0 mm 2 mps 746 mmHg 58%
    12:00 +23°C° 0 mm 2 mps 745 mmHg 58%
    13:00 +22°C° 0 mm 3 mps 745 mmHg 58%
    14:00 +22°C° 0 mm 3 mps 745 mmHg 57%
    15:00 +22°C° 0 mm 3 mps 744 mmHg 62%
    16:00 +21°C° 0 mm 2 mps 744 mmHg 66%
    17:00 +21°C° 0 mm 2 mps 744 mmHg 71%
    18:00 +19°C° 0 mm 2 mps 743 mmHg 77%
    19:00 +17°C° 0 mm 2 mps 743 mmHg 83%
    20:00 +15°C° 0 mm 2 mps 743 mmHg 89%
    21:00 +15°C° 0 mm 2 mps 743 mmHg 90%
    22:00 +15°C° 0 mm 2 mps 743 mmHg 92%
    23:00 +14°C° 0 mm 2 mps 743 mmHg 94%

    25 August, Sunday

    Time Temperature Precipitation Wind Pressure Humidity
    00:00 +14°C° 0 mm 2 mps 743 mmHg 94%
    01:00 +13°C° 0 mm 2 mps 743 mmHg 95%
    02:00 +13°C° 0 mm 2 mps 742 mmHg 95%
    03:00 +13°C° 0 mm 2 mps 742 mmHg 95%
    04:00 +13°C° 0 mm 2 mps 742 mmHg 96%
    05:00 +13°C° 0 mm 2 mps 742 mmHg 96%
    06:00 +13°C° 0 mm 3 mps 742 mmHg 91%
    07:00 +16°C° 0 mm 3 mps 742 mmHg 87%
    08:00 +17°C° 0 mm 3 mps 742 mmHg 83%
    09:00 +18°C° 0.2 mm 3 mps 742 mmHg 80%
    10:00 +19°C° 0.2 mm 4 mps 742 mmHg 77%
    11:00 +20°C° 0.2 mm 4 mps 743 mmHg 74%
    12:00 +20°C° 0.3 mm 4 mps 743 mmHg 71%
    13:00 +21°C° 0.3 mm 4 mps 743 mmHg 69%
    14:00 +21°C° 0.3 mm 4 mps 743 mmHg 66%
    15:00 +20°C° 0 mm 3 mps 743 mmHg 68%
    16:00 +20°C° 0 mm 3 mps 743 mmHg 69%
    17:00 +20°C° 0 mm 2 mps 743 mmHg 70%
    18:00 +18°C° 0 mm 2 mps 744 mmHg 75%
    19:00 +16°C° 0 mm 2 mps 744 mmHg 81%
    20:00 +14°C° 0 mm 2 mps 744 mmHg 86%
    21:00 +13°C° 0 mm 2 mps 745 mmHg 88%
    22:00 +12°C° 0 mm 2 mps 745 mmHg 91%
    23:00 +12°C° 0 mm 2 mps 746 mmHg 93%

    26 August, Monday

    Time Temperature Precipitation Wind Pressure Humidity
    00:00 +10°C° 0 mm 2 mps 746 mmHg 94%
    01:00 +10°C° 0 mm 2 mps 746 mmHg 94%
    02:00 +10°C° 0 mm 1 mps 746 mmHg 95%
    03:00 +10°C° 0 mm 1 mps 746 mmHg 96%
    04:00 +10°C° 0 mm 1 mps 747 mmHg 96%
    05:00 +10°C° 0 mm 1 mps 747 mmHg 96%
    06:00 +11°C° 0 mm 1 mps 747 mmHg 90%
    07:00 +13°C° 0 mm 1 mps 747 mmHg 84%
    08:00 +15°C° 0 mm 1 mps 748 mmHg 78%
    09:00 +16°C° 0 mm 1 mps 748 mmHg 72%
    10:00 +19°C° 0 mm 1 mps 748 mmHg 66%
    11:00 +20°C° 0 mm 1 mps 748 mmHg 60%
    12:00 +21°C° 0 mm 1 mps 748 mmHg 58%
    13:00 +21°C° 0 mm 1 mps 747 mmHg 56%
    14:00 +22°C° 0 mm 1 mps 747 mmHg 53%
    15:00 +21°C° 0 mm 1 mps 747 mmHg 58%
    16:00 +21°C° 0 mm 1 mps 746 mmHg 62%
    17:00 +21°C° 0 mm 1 mps 746 mmHg 67%
    18:00 +19°C° 0 mm 1 mps 746 mmHg 72%
    19:00 +15°C° 0 mm 1 mps 746 mmHg 78%
    20:00 +13°C° 0 mm 1 mps 746 mmHg 83%
    21:00 +13°C° 0 mm 1 mps 746 mmHg 85%
    22:00 +13°C° 0 mm 1 mps 746 mmHg 87%
    23:00 +12°C° 0 mm 1 mps 746 mmHg 89%
    Show more